Location: Oberwangen
(47.4286°N, 8.9679°E)
Time: 21:40:15
(UTC+00:00)

FALCON 9 DEB - Pass Details

Date: 18 October 2021
Orbit: 345 x 354 km, 53.0° (Epoch: 28 November)

Event Time Altitude Azimuth Distance (km) Brightness Sun altitude
Exits shadow 03:49:43 16° 163° (SSE) 1,072 5.2 -20.5°
Drops below altitude 10° 03:50:33 10° 154° (SSE) 1,369 5.8 -20.4°
Sets 03:52:42 0° 144° (SE) 2,213 7.1 -20.0°
